Theta_e
319 318 319 318 319 319 318 318 318 318 318 318 318 319 319 319 319 319 319 319 319 318 318 318 318 318 318 319 319 319 319 314 311 308 306 307 316 323 337 333 338 337 341 339 333 329 323 323 321 322 320 319 318 319 323 330 338 337 324 320 316 319 319 324 324 327 331 326 329 331 332 329 326 333 336 335 331 331 330 330 333 336 336 337 340 343 344 346
318 318 318 318 318 318 318 318 318 318 319 319 318 318 319 318 318 319 319 319 318 318 318 318 318 318 318 319 319 320 317 313 309 307 306 318 328 329 335 339 341 341 345 333 326 322 319 315 318 317 315 314 322 320 328 323 335 325 320 317 313 322 326 329 332 334 328 328 330 331 335 332 329 333 335 327 325 327 326 328 331 331 335 338 340 342 343 344
318 318 318 318 317 317 318 318 318 318 318 318 318 318 318 318 318 318 318 318 318 318 318 318 318 318 319 319 319 321 316 310 309 307 309 331 331 333 335 340 346 342 333 329 323 320 316 315 318 315 314 314 320 318 325 324 329 327 321 315 318 330 328 331 334 334 335 333 330 330 333 333 334 337 341 326 324 327 324 325 328 329 330 334 337 340 341 342
318 318 318 318 317 317 318 318 318 318 318 318 318 318 318 318 318 318 318 318 318 318 318 317 318 318 319 319 321 316 312 308 305 308 316 340 340 337 337 339 348 345 319 326 322 318 318 320 318 316 314 315 318 322 320 326 323 327 323 317 321 333 329 333 336 336 334 335 331 331 333 331 336 335 332 326 323 323 325 329 329 329 331 334 337 339 340 340
318 318 318 318 317 317 317 318 318 318 318 318 317 317 317 317 317 317 318 318 318 318 317 318 318 319 319 320 320 315 308 299 302 313 324 351 346 337 341 343 349 337 320 316 320 318 319 317 316 319 318 313 319 319 318 324 329 329 323 327 330 335 330 336 337 335 334 336 333 331 329 329 338 335 328 326 321 320 326 330 332 334 335 335 336 338 340 339
318 318 317 317 317 317 317 317 318 318 317 317 317 317 317 317 317 317 317 317 317 317 317 318 319 319 319 320 315 313 305 292 308 305 352 354 344 338 343 347 348 331 314 317 317 315 317 316 317 315 315 316 316 315 317 323 331 321 327 329 333 335 333 338 337 335 335 333 331 329 333 334 331 328 330 327 324 327 334 334 335 336 337 338 339 339 338 338
318 317 317 317 317 317 317 317 317 317 317 317 317 317 317 317 316 316 317 317 317 317 317 318 319 319 319 320 311 307 295 298 305 307 352 350 342 343 346 350 345 322 312 311 311 314 314 316 316 314 314 314 314 316 320 318 329 325 320 330 333 337 335 338 335 337 335 333 331 336 337 331 329 324 331 327 332 332 335 337 337 338 339 340 337 338 337 337
317 317 317 317 317 317 317 317 317 317 317 317 317 317 317 317 317 317 317 317 317 318 318 318 319 319 319 311 309 296 295 296 302 305 354 345 339 340 345 329 321 317 310 308 311 313 315 315 315 317 314 313 312 315 316 313 325 323 324 333 334 336 336 337 336 335 336 336 338 337 331 329 331 329 331 329 333 334 336 337 338 338 338 338 337 337 337 337
317 317 317 317 317 317 317 317 317 317 317 317 317 316 317 317 316 316 317 317 317 318 318 318 318 318 319 313 301 292 291 299 310 332 342 332 336 336 329 322 316 312 309 307 310 313 316 314 317 319 313 314 318 315 316 316 318 325 329 334 334 333 335 337 337 336 337 336 336 332 328 331 333 335 333 334 332 336 337 337 337 337 336 336 336 337 337 337
317 317 317 317 317 317 317 317 317 317 317 317 316 316 316 316 315 316 316 317 317 318 318 318 319 319 317 310 296 290 296 308 335 341 331 330 333 329 322 319 313 309 307 306 307 312 315 314 319 321 319 318 318 314 313 319 320 334 333 334 333 334 334 337 335 336 337 335 337 330 328 328 335 333 321 334 334 336 336 335 336 335 334 335 336 337 337 337
317 317 317 317 317 317 317 317 317 317 317 316 316 316 315 315 315 315 316 316 317 317 318 318 320 317 308 309 291 289 300 326 330 331 328 330 325 319 319 314 311 309 308 305 306 311 317 319 322 323 321 316 315 311 318 323 335 333 334 334 334 335 336 336 335 334 335 332 338 332 328 332 334 331 324 330 334 336 333 333 334 334 334 335 336 336 337 337
317 317 317 317 317 316 317 317 317 316 316 316 315 315 315 315 315 315 316 316 317 317 318 320 320 316 311 306 297 294 311 326 326 329 328 326 319 317 319 316 311 309 308 305 305 309 312 318 323 322 313 323 313 311 323 335 333 332 333 327 329 332 329 334 330 332 336 331 337 333 327 325 328 326 332 332 335 335 333 332 333 333 334 334 335 336 336 336
317 317 317 317 316 316 317 317 317 316 316 315 314 314 315 315 314 315 315 316 318 319 320 321 319 316 312 297 299 308 310 313 324 325 325 317 314 314 316 316 310 309 308 307 305 308 310 312 318 318 322 320 315 305 329 335 332 331 329 328 325 326 324 329 331 331 332 333 337 333 312 317 324 328 335 333 334 333 331 331 332 332 333 333 334 335 335 336
317 317 317 317 316 316 316 316 316 316 315 314 314 314 314 313 314 314 316 316 319 320 320 323 316 312 303 294 300 306 310 309 321 322 321 319 315 313 312 313 312 309 310 310 307 309 310 314 314 315 322 317 313 312 330 328 329 320 325 324 320 319 318 327 327 326 327 334 336 335 314 317 325 328 336 334 334 331 329 330 331 331 332 333 334 334 334 335
317 317 317 317 316 316 316 316 315 314 314 314 314 313 312 312 314 315 317 319 321 322 322 322 313 308 301 299 306 311 325 311 314 318 322 316 312 311 310 310 312 311 309 310 314 313 311 313 315 314 310 318 319 312 318 318 321 322 316 310 316 315 317 325 329 328 324 330 334 331 315 317 324 328 336 333 333 332 329 330 330 330 331 332 332 333 334 334
317 317 317 317 316 316 316 315 315 314 314 313 312 311 312 313 315 317 319 319 322 323 320 311 312 312 300 296 303 320 318 313 312 315 322 318 313 309 310 308 309 311 310 309 317 317 318 318 312 309 309 306 307 312 314 314 315 316 309 308 311 315 318 320 325 330 331 329 330 328 316 321 323 331 337 332 332 331 329 329 329 330 330 331 332 332 333 333
317 317 316 316 316 316 316 315 314 314 313 312 311 312 312 315 317 320 322 323 321 321 315 308 311 313 293 300 310 308 311 314 315 316 318 316 312 309 308 306 305 306 307 307 313 314 314 314 311 311 303 301 301 316 311 304 305 311 311 309 314 315 318 315 325 329 329 329 322 329 321 322 326 331 335 330 331 329 327 328 328 329 330 331 331 332 332 332
316 316 316 316 316 316 315 314 314 313 311 310 310 310 309 316 320 321 321 319 319 317 314 316 313 304 296 301 300 307 310 308 312 312 316 313 309 311 308 304 303 304 304 306 316 309 310 307 304 298 298 299 308 311 306 302 308 309 307 309 312 317 319 319 318 324 327 328 324 324 323 324 327 331 332 329 331 329 327 327 328 328 329 330 330 330 331 331
317 316 316 316 315 315 315 315 314 312 310 311 313 315 314 316 314 312 312 315 303 297 292 299 298 293 288 297 303 305 308 310 312 312 308 309 310 309 311 306 304 303 302 304 305 309 305 303 300 298 295 295 300 312 306 306 312 311 312 313 314 312 314 318 323 328 327 323 321 322 318 322 325 328 330 330 331 327 327 327 327 328 329 329 329 329 329 330
317 316 316 315 315 315 315 314 313 310 309 307 306 313 311 306 302 302 309 309 302 301 301 301 304 304 303 303 303 308 311 314 308 310 309 315 310 307 308 308 307 306 307 304 303 304 303 298 293 293 294 297 298 305 309 303 311 314 314 315 315 316 318 324 325 328 331 324 322 324 323 323 325 327 328 335 335 328 326 325 325 326 327 328 328 328 328 329
316 316 316 315 314 314 314 313 312 311 309 307 306 305 299 302 295 294 298 304 306 306 303 302 305 303 303 305 307 308 305 306 308 309 309 318 308 308 304 307 304 302 304 303 301 305 303 296 295 296 298 298 299 299 300 300 301 302 311 314 313 315 314 323 324 327 329 323 320 324 323 322 324 327 330 332 330 326 326 325 324 325 327 328 327 328 327 328
316 316 315 314 314 313 313 312 311 310 308 306 307 304 304 305 307 307 302 296 300 305 306 305 306 304 307 308 310 311 309 304 307 308 313 312 307 304 303 302 301 302 302 300 301 298 296 295 297 298 299 300 299 299 299 299 299 301 310 312 313 316 322 325 326 327 326 323 319 322 320 321 324 327 329 329 330 330 331 334 327 325 326 326 327 328 327 326
316 316 315 315 314 313 312 311 310 308 306 306 306 306 304 306 310 310 307 298 296 301 303 303 303 303 304 308 309 310 303 302 302 307 309 310 305 304 304 300 302 300 298 300 298 293 294 296 298 300 299 298 298 297 297 298 298 297 311 310 309 318 315 312 321 323 323 321 318 322 319 321 324 326 326 328 330 332 334 335 334 329 326 326 327 328 326 324
316 316 315 314 314 312 312 310 307 306 304 306 306 305 310 309 308 309 302 295 294 297 302 304 304 304 303 304 308 308 304 304 304 304 318 309 304 305 304 299 298 299 297 296 297 295 294 298 301 299 298 299 297 296 296 295 295 295 305 311 312 316 315 318 318 319 322 322 323 321 316 316 320 320 322 327 331 332 331 334 334 333 333 328 328 327 327 324
315 315 315 315 313 312 309 308 306 308 308 306 307 311 311 312 311 309 300 294 290 294 301 302 308 306 307 313 312 307 305 305 304 307 317 310 305 305 303 303 299 296 296 296 296 295 295 299 299 298 297 298 297 296 296 296 293 292 295 306 316 320 318 320 320 318 315 314 319 319 307 309 317 320 320 324 327 327 330 328 329 331 331 328 325 324 324 326
315 315 315 314 314 312 309 306 309 308 308 308 310 312 311 311 309 305 295 287 286 290 297 296 304 299 309 304 309 305 306 302 305 308 313 312 318 307 305 300 301 297 296 297 296 294 297 300 300 298 297 296 296 295 296 297 293 295 295 299 314 320 320 320 318 317 310 308 316 321 307 302 315 316 319 322 323 324 329 327 328 332 330 329 325 325 322 323
315 315 314 313 313 309 304 305 308 308 304 307 310 311 312 313 309 304 298 283 280 294 294 299 300 299 304 302 305 306 293 297 307 312 311 318 310 313 303 297 301 301 301 299 297 294 299 298 298 297 296 295 294 294 296 297 293 293 295 297 316 319 318 318 318 316 311 319 318 319 313 303 303 314 321 322 321 322 324 326 328 331 331 330 328 326 323 323
315 314 312 311 310 309 305 305 307 307 307 310 313 313 312 312 305 302 291 280 280 296 294 295 299 305 303 302 307 301 301 304 301 306 310 313 311 305 301 297 299 298 300 298 291 295 297 296 296 295 295 293 293 294 297 298 296 294 301 309 318 319 319 319 317 312 313 314 308 314 316 303 302 313 323 321 317 319 321 324 326 329 331 331 331 332 325 324
314 313 312 311 310 308 308 307 307 306 309 312 313 312 313 306 302 295 285 280 293 292 303 296 306 302 299 303 303 299 301 302 299 303 310 310 309 305 301 299 298 298 300 299 293 293 298 299 296 298 295 293 295 296 299 299 296 300 321 322 321 321 319 317 312 312 309 306 305 311 315 301 302 313 315 320 317 317 320 324 326 329 329 330 331 333 334 324
313 312 312 310 308 307 307 308 305 310 313 312 312 312 311 303 297 290 283 278 294 288 297 296 297 294 298 297 297 297 300 300 303 305 306 305 304 305 305 304 301 300 299 297 297 297 300 311 309 298 295 297 297 299 300 299 309 317 319 314 312 312 312 312 309 308 304 297 303 314 314 303 296 309 313 313 315 320 322 324 328 330 330 331 332 333 336 326
311 310 310 310 305 308 308 301 306 311 313 312 312 308 304 298 291 282 280 286 294 292 297 294 294 297 296 295 294 297 298 297 303 304 301 305 303 301 300 301 300 293 291 290 294 295 297 299 302 302 305 300 299 298 300 303 320 317 311 310 311 308 312 308 307 307 296 293 301 313 313 308 297 301 313 318 322 325 325 324 326 328 330 331 332 334 338 336
309 308 309 308 309 310 302 303 306 310 311 312 311 303 298 293 287 282 285 298 288 290 290 288 293 292 292 295 293 294 295 296 301 301 298 297 296 298 294 290 293 289 289 289 293 293 293 295 295 298 315 302 297 295 296 300 309 314 312 311 304 298 301 298 301 299 296 293 302 311 311 305 301 306 317 319 320 321 327 328 328 329 330 331 332 335 336 340
308 307 307 309 310 307 308 309 312 311 312 314 304 298 291 282 282 284 287 290 288 291 291 294 292 293 292 293 293 295 295 293 296 299 297 295 296 297 296 297 296 297 289 290 289 288 291 293 297 297 300 305 298 293 293 295 307 312 309 303 298 292 292 290 294 296 294 300 309 309 311 301 305 313 322 322 325 327 326 330 332 331 331 332 333 336 338 340
307 307 304 309 309 310 312 313 313 313 311 313 301 299 288 282 284 309 295 290 292 295 295 292 292 292 293 289 292 293 292 295 297 297 295 293 290 294 296 297 296 297 293 290 290 286 287 288 293 296 294 300 299 297 297 295 307 312 312 308 302 299 295 290 292 291 293 297 305 309 304 297 302 310 323 326 328 329 332 331 333 332 334 336 338 339 339 337
307 305 304 308 309 310 310 311 311 313 306 302 296 290 283 282 286 285 288 287 290 293 292 292 290 288 291 290 291 293 294 291 295 294 292 293 291 289 290 292 296 295 292 290 291 291 289 287 292 298 300 300 299 299 301 306 310 309 310 310 304 301 301 297 297 297 299 302 302 304 303 309 310 320 325 329 330 330 333 329 331 331 335 337 337 337 338 338
306 307 307 308 309 312 311 312 312 310 303 297 291 287 287 290 288 290 291 294 294 292 291 290 288 285 285 285 289 292 296 291 293 290 290 290 291 291 293 292 294 296 292 290 289 289 290 288 295 296 301 300 301 302 301 312 298 301 306 303 306 309 305 301 305 306 307 303 301 307 306 311 317 319 324 327 327 328 331 330 329 329 333 334 335 337 337 338
308 311 307 309 312 316 312 313 313 307 303 297 290 289 289 294 295 291 308 296 293 293 286 285 288 286 286 286 288 290 294 293 293 289 288 292 290 292 293 293 296 297 295 296 291 291 288 289 293 296 297 301 300 302 303 306 302 302 300 305 302 305 306 302 297 293 295 296 300 306 302 303 304 302 321 323 322 324 327 330 331 330 331 332 334 335 337 338
306 308 316 318 318 314 314 313 310 304 299 294 290 305 297 295 298 296 297 294 295 291 286 285 290 291 288 286 289 291 292 289 290 289 290 291 288 296 293 293 296 298 299 296 294 293 293 287 289 294 297 300 301 302 299 301 302 309 307 308 300 294 297 296 300 290 291 292 296 302 304 305 306 306 316 318 319 321 323 327 329 329 330 330 333 335 337 339
306 302 303 309 315 315 313 313 308 303 295 290 291 293 302 299 300 296 298 296 294 289 288 289 288 292 289 287 290 291 293 288 291 289 287 290 287 295 294 295 295 297 297 296 293 294 294 288 287 294 296 298 298 298 292 294 300 300 303 300 299 296 294 297 299 298 299 295 297 297 302 298 304 307 316 319 320 321 322 324 326 329 330 330 332 335 336 337
302 299 299 309 314 315 315 313 303 297 293 292 291 294 297 296 298 299 296 298 296 292 292 292 293 289 291 292 290 290 292 291 289 291 289 293 291 295 295 296 295 296 296 299 296 298 293 293 285 290 295 297 294 294 294 294 293 295 297 295 297 295 298 299 296 299 298 296 295 294 293 299 303 314 318 320 320 322 323 323 324 326 329 332 332 334 335 337
304 297 298 308 316 315 314 305 298 296 293 293 296 296 296 297 301 299 296 298 297 299 294 294 290 289 291 290 293 293 291 290 291 290 290 292 290 288 293 295 296 295 296 296 294 295 291 291 288 288 292 292 290 293 297 297 300 298 295 294 294 294 296 294 290 297 300 297 292 292 291 299 310 320 322 321 321 323 324 324 324 327 330 332 334 335 336 337
298 296 300 311 316 313 304 297 295 296 294 294 295 297 299 313 295 295 296 296 297 296 297 294 293 292 292 293 292 292 290 291 291 289 292 288 293 291 295 294 295 296 295 294 295 296 296 290 291 289 289 290 294 297 298 297 296 295 298 296 294 293 295 289 288 294 300 300 302 297 292 297 315 321 322 321 322 324 324 324 323 325 327 329 332 335 336 338
297 299 306 309 311 308 296 290 299 299 296 295 299 299 299 298 295 296 295 296 297 295 294 294 296 294 295 295 294 293 291 291 293 291 291 291 292 292 294 293 293 296 295 292 298 298 321 291 291 290 289 292 294 295 300 297 297 297 295 294 294 294 292 292 294 300 298 299 296 292 292 299 315 322 322 322 322 322 323 324 323 324 325 326 327 330 332 334
298 300 305 312 314 305 299 293 292 289 294 302 297 297 298 299 295 295 294 294 295 295 294 295 296 296 296 295 293 293 294 289 294 292 291 293 292 296 295 293 297 298 298 299 297 301 296 294 288 287 285 286 288 293 294 296 294 291 292 294 297 300 300 298 303 300 299 299 297 295 290 300 315 320 320 319 319 319 320 322 324 323 325 325 326 327 331 333
302 304 305 309 312 306 299 294 293 291 294 295 296 294 295 296 297 296 296 296 296 294 294 294 296 297 296 296 295 294 295 293 291 294 293 293 294 296 295 293 299 301 306 308 314 309 295 296 291 285 282 282 282 282 283 290 291 291 293 302 305 305 305 304 300 295 289 297 298 295 296 307 315 318 317 317 317 317 321 322 323 324 324 324 325 327 327 329
300 295 299 297 302 298 299 300 295 296 294 295 294 294 295 294 297 297 296 297 298 298 294 297 297 296 295 295 295 294 295 295 293 292 291 292 291 294 293 295 297 302 316 315 315 307 296 298 292 287 284 282 283 285 290 300 291 291 295 299 303 303 304 302 299 295 293 296 299 297 303 307 310 313 313 315 316 316 318 321 321 321 322 323 324 324 326 326
301 295 297 294 301 295 294 292 296 296 295 295 290 294 293 293 294 297 297 296 298 298 298 298 298 296 295 294 294 294 295 293 294 294 294 293 293 292 293 296 296 307 317 310 310 303 297 293 296 292 291 291 290 291 290 299 291 292 296 299 301 302 303 303 299 294 299 300 292 297 308 307 309 312 313 314 315 317 319 320 320 321 322 322 323 324 325 325
295 299 300 304 295 291 293 291 297 295 298 296 294 296 295 293 294 294 296 298 297 299 295 298 298 298 298 297 296 292 293 291 292 292 295 295 293 294 295 296 296 302 306 300 304 300 294 293 297 296 291 291 291 290 292 294 294 297 300 298 302 301 303 301 300 301 304 298 296 302 308 308 311 313 314 314 315 316 317 319 320 321 321 322 321 321 321 322
302 301 303 308 299 296 294 299 304 297 297 295 298 295 292 291 293 295 295 296 296 297 297 292 295 297 300 299 297 294 293 286 290 293 294 293 294 292 291 293 297 295 298 296 299 302 295 293 301 296 291 292 292 292 294 299 297 298 300 303 303 303 303 303 304 304 302 300 302 308 309 310 314 313 314 314 316 317 319 321 321 320 320 320 319 319 319 320
299 301 301 305 303 302 302 299 299 295 291 299 291 295 293 292 294 295 296 295 293 296 297 294 295 295 298 299 299 294 296 294 294 291 295 295 292 292 292 292 291 294 294 294 298 298 295 293 304 294 290 291 292 294 292 294 298 295 294 296 300 305 306 307 307 309 310 308 309 310 310 309 314 315 314 315 317 318 319 319 318 319 319 319 318 318 318 319
307 305 306 302 298 300 304 295 295 294 291 292 290 297 300 294 294 296 296 297 297 296 295 294 295 295 297 297 297 298 299 299 297 295 296 295 292 296 292 294 296 292 292 293 295 297 299 296 295 291 288 288 291 292 292 292 295 294 293 295 294 297 303 305 304 307 306 306 308 309 307 307 312 314 315 316 316 317 316 317 317 318 318 318 317 317 317 318
307 307 307 302 298 306 297 298 293 290 291 292 295 295 296 294 295 295 293 297 295 298 297 297 297 295 293 294 295 299 300 299 298 296 296 294 298 298 298 297 295 295 292 292 294 295 293 293 290 289 285 288 292 293 292 290 294 291 290 293 296 301 303 306 307 310 310 311 307 305 306 313 312 315 313 313 315 315 315 316 316 317 317 317 316 316 317 318
Wind_Speed
12 12 12 12 12 11 11 11 10 10 10 11 11 11 12 11 12 12 12 11 11 12 12 12 12 11 11 11 11 11 10 8 7 2 1 14 8 10 9 2 9 15 8 10 11 12 5 5 4 2 4 4 2 2 2 3 1 1 1 1 3 5 5 2 2 1 1 8 7 6 1 8 6 1 3 7 6 4 5 7 5 9 9 10 12 13 13 12
12 12 12 12 12 12 12 12 12 11 10 11 11 11 11 12 12 12 12 12 12 12 12 12 12 11 11 10 9 10 9 5 7 6 19 6 9 13 10 4 6 16 11 10 13 9 12 5 6 6 6 2 1 1 5 2 4 2 1 0 4 2 1 1 2 4 5 3 8 5 1 2 3 6 2 5 3 4 7 5 8 10 11 12 13 13 13 13
13 13 13 13 12 12 12 12 12 12 11 11 11 11 12 12 12 12 12 12 12 12 12 12 11 11 10 10 9 6 6 4 3 8 15 17 19 11 12 8 8 17 8 8 6 9 11 12 10 8 3 3 2 3 4 1 5 4 1 2 3 1 1 1 1 3 3 7 9 7 1 4 2 2 0 5 6 5 7 8 7 10 14 13 13 13 12 12
14 14 14 13 13 13 13 13 13 12 12 12 12 11 12 12 12 12 13 13 12 12 12 12 11 10 10 9 8 3 1 2 1 4 4 5 15 16 13 12 12 12 7 6 6 5 5 6 8 7 3 1 1 1 4 3 3 2 2 3 2 1 1 2 4 5 6 5 8 6 3 5 2 3 2 9 11 3 3 7 11 12 15 14 13 13 11 12
15 15 15 15 14 13 13 13 13 13 13 13 12 12 11 11 12 12 12 13 12 11 12 11 10 10 10 7 4 2 1 2 2 2 2 1 11 18 15 13 16 8 6 7 5 4 8 10 7 3 2 2 0 1 3 3 3 4 4 2 2 3 1 2 4 7 6 4 6 6 8 5 2 4 5 9 10 7 8 9 8 14 16 17 15 12 11 12
15 15 15 15 14 14 14 13 13 13 13 13 12 12 12 11 11 12 12 12 12 11 11 10 10 9 9 8 1 2 0 1 2 3 4 4 14 18 16 13 17 10 9 9 6 4 9 6 7 3 2 2 3 5 2 6 6 3 1 3 4 2 4 4 4 5 7 4 4 5 2 4 3 3 3 1 2 2 2 6 11 11 13 14 12 12 12 11
14 15 14 14 15 15 15 14 14 13 13 12 13 12 12 12 11 12 12 12 12 11 11 10 9 9 9 5 1 0 1 7 3 8 4 12 15 17 17 13 15 10 7 8 4 5 4 10 5 5 4 1 3 4 5 2 6 4 1 0 1 3 6 6 9 9 7 7 3 1 2 5 5 7 0 3 1 6 6 8 10 11 11 13 12 11 12 11
14 14 14 14 14 15 15 14 14 13 13 12 12 13 12 12 12 12 12 12 11 11 10 9 8 8 5 2 0 1 1 6 8 5 6 15 13 16 13 7 10 9 7 7 8 7 5 10 8 4 2 6 2 5 2 3 5 6 2 1 4 7 4 5 8 10 10 6 5 5 7 5 6 1 3 2 5 10 9 10 11 11 10 10 10 11 10 10
14 14 14 14 15 15 15 15 15 14 13 12 12 12 12 12 12 12 12 11 11 10 9 8 7 5 2 1 0 2 4 5 3 4 10 12 11 12 12 6 6 11 7 5 5 5 4 4 5 5 4 3 2 3 4 2 3 6 3 4 6 5 5 4 7 6 8 5 6 10 9 3 2 4 3 0 6 10 12 12 12 11 11 10 10 11 10 10
14 14 14 14 15 15 15 15 15 15 14 13 12 12 12 12 12 12 12 11 10 9 8 7 5 4 1 1 0 0 4 3 3 4 7 13 11 12 6 8 8 9 9 5 4 5 4 4 5 3 4 1 0 4 3 5 4 7 8 7 9 6 6 3 5 5 3 4 5 8 7 5 1 3 2 2 8 13 12 13 11 12 11 9 8 9 9 10
15 14 14 14 15 15 15 16 15 15 14 14 13 12 12 12 12 12 11 10 9 8 6 5 3 1 0 0 3 6 5 4 3 2 9 11 13 11 8 9 9 8 8 4 5 3 2 5 1 3 2 1 0 5 0 2 9 11 13 12 9 7 5 6 7 5 5 3 1 11 6 4 2 2 1 6 8 14 14 12 11 10 9 9 8 9 7 8
15 15 14 14 14 15 15 16 15 15 15 14 13 13 12 11 11 11 10 9 8 6 4 3 5 2 0 0 2 7 3 3 1 3 7 9 8 4 5 10 11 11 10 8 5 4 3 2 2 2 2 0 2 3 2 7 9 10 11 7 8 8 5 5 5 2 2 3 3 9 10 2 0 1 2 8 8 13 14 13 12 10 8 8 7 7 6 7
15 15 14 14 15 15 15 15 15 15 15 14 13 12 12 11 11 10 9 8 7 4 4 4 6 1 0 1 9 8 3 1 5 6 4 3 4 6 5 2 2 3 5 10 6 5 5 1 4 2 1 1 2 1 1 2 7 6 5 9 7 4 3 1 2 1 1 3 6 6 5 6 2 1 1 8 10 12 13 12 11 9 8 6 7 7 6 5
15 15 15 14 14 15 15 15 15 15 15 14 12 13 12 12 10 9 8 8 8 4 5 6 5 2 1 5 6 4 3 1 4 6 4 1 7 2 4 4 2 2 3 2 4 5 4 0 2 0 1 1 2 3 1 2 2 3 4 4 5 5 2 2 1 2 3 2 3 5 5 5 3 3 1 4 10 16 14 12 11 9 8 7 7 6 7 6
15 15 16 15 16 15 15 15 15 15 14 13 12 13 12 11 9 7 5 6 8 6 8 7 3 1 0 7 6 9 5 3 4 3 7 6 5 3 3 4 3 2 2 1 1 3 4 2 1 1 2 1 1 1 1 2 2 2 5 1 2 3 2 4 4 8 5 3 3 1 1 6 6 6 2 5 9 12 14 12 12 10 8 8 7 7 7 6
12 14 15 16 16 16 14 11 12 14 14 14 13 12 11 9 8 5 3 1 4 12 7 3 1 0 1 6 1 2 2 1 3 7 6 8 6 3 4 5 4 1 1 2 1 1 2 3 2 4 2 1 4 5 3 3 0 2 2 2 4 2 5 5 5 5 5 6 1 3 3 7 1 6 3 10 10 9 14 12 11 11 10 8 8 7 6 6
12 12 12 15 16 16 15 11 12 14 15 14 13 11 8 8 6 4 6 3 3 3 0 1 2 2 1 3 3 1 0 3 2 3 3 1 6 7 9 5 2 3 1 2 1 2 0 2 1 0 1 2 3 5 6 1 0 2 1 2 2 6 5 2 6 5 3 7 5 3 5 3 5 7 3 11 9 10 11 13 12 11 9 9 7 7 7 7
14 13 12 16 16 16 14 11 11 14 14 15 11 6 2 2 4 7 5 4 2 1 2 2 0 1 6 3 1 0 1 3 1 3 5 1 6 8 7 3 2 6 4 1 0 2 1 0 0 3 0 1 3 5 6 6 7 7 3 4 3 2 3 5 7 8 9 5 4 2 3 4 5 6 6 10 10 10 12 12 12 11 10 9 8 8 8 7
18 16 14 13 16 16 14 11 9 10 13 15 8 4 4 2 1 0 3 1 1 0 1 0 1 1 2 1 5 6 3 5 3 6 5 7 1 3 3 3 8 10 4 4 0 4 1 1 3 0 3 2 5 7 6 3 3 3 4 3 4 6 3 5 4 7 11 9 7 5 6 6 7 6 8 8 10 11 11 9 9 10 10 10 9 8 8 7
19 18 15 14 13 15 15 12 8 4 10 7 3 4 2 1 1 0 0 0 4 6 4 3 4 2 5 6 4 4 5 1 4 1 5 3 9 4 1 3 2 3 6 6 2 3 4 5 4 5 5 6 4 8 6 1 4 5 5 5 5 4 2 1 3 9 4 6 6 5 5 5 7 8 11 5 4 9 10 11 10 9 10 10 10 9 9 9
16 16 15 14 13 12 14 10 7 3 6 2 2 1 1 1 2 2 2 7 6 4 4 5 8 5 4 2 3 3 4 2 2 1 5 4 6 8 2 3 3 4 4 5 5 1 4 5 7 5 7 7 8 5 3 2 2 3 5 6 6 5 4 3 5 10 8 2 6 4 7 6 9 8 8 4 6 10 9 11 10 10 11 10 11 11 10 10
17 16 15 14 13 12 11 8 6 2 3 1 1 1 0 3 1 2 2 4 3 8 8 4 2 4 3 7 3 2 2 2 3 1 1 5 4 5 1 5 3 8 1 2 1 2 3 7 5 7 4 2 2 3 3 3 2 2 4 4 6 2 5 4 5 9 4 4 3 8 7 7 9 9 5 4 2 4 2 1 6 11 10 10 10 10 9 7
18 16 16 14 13 12 11 7 5 2 2 2 1 1 1 2 0 1 0 1 6 1 2 2 3 6 6 3 2 7 2 3 2 1 4 3 2 3 4 5 5 3 2 2 6 2 2 5 9 3 5 4 1 3 3 3 2 3 5 5 5 7 5 1 3 8 9 2 5 9 8 5 6 5 4 1 1 2 1 2 4 4 11 11 12 11 10 9
19 19 16 15 13 13 11 9 3 3 2 2 1 4 1 0 1 2 3 2 3 5 3 5 4 2 4 0 3 5 6 2 2 1 1 5 5 2 4 3 4 3 4 3 5 6 5 2 1 6 4 5 3 3 4 3 2 1 4 3 4 7 4 3 6 6 5 4 4 6 6 3 5 8 4 5 3 1 4 2 2 2 3 7 5 5 8 11
18 19 18 15 14 13 13 6 2 3 4 2 5 5 4 5 3 5 2 4 2 3 2 1 1 3 4 1 3 2 2 1 3 2 3 6 3 2 1 2 4 2 2 3 4 1 6 5 3 4 2 2 3 2 4 5 3 1 5 7 6 8 7 11 14 11 3 1 4 9 5 7 8 9 11 8 5 4 2 1 3 3 4 4 6 8 5 5
17 16 18 15 15 16 12 0 0 0 1 3 1 0 1 3 2 4 4 3 1 3 1 1 0 1 1 0 1 2 3 1 3 3 4 6 5 4 1 1 2 4 3 3 3 3 4 1 4 3 3 2 3 3 3 4 4 0 5 9 9 11 9 14 13 8 6 5 8 6 4 2 2 12 10 8 8 7 5 5 5 3 4 5 8 8 7 8
16 16 15 14 14 13 2 0 1 2 2 1 1 3 1 3 2 3 1 3 2 1 0 1 0 1 1 1 4 2 2 2 1 3 2 3 4 1 6 2 1 1 2 2 2 3 1 0 3 3 4 3 1 3 3 6 5 3 2 6 8 10 11 13 14 8 3 4 5 3 1 3 0 5 7 8 6 6 8 7 8 5 4 6 6 7 8 9
18 16 13 12 10 4 1 3 5 0 3 2 3 4 3 0 3 3 3 1 1 1 0 1 1 1 0 0 6 1 2 1 3 2 1 1 4 3 3 4 6 5 2 3 6 5 3 1 3 2 1 3 5 4 4 7 5 2 1 10 13 14 12 11 9 5 4 6 4 6 3 2 2 0 6 10 9 10 11 11 10 8 6 5 5 6 9 10
16 15 13 10 9 5 3 1 0 3 2 3 6 4 2 3 4 5 2 2 0 1 4 1 3 0 2 1 2 1 1 1 1 1 1 3 3 3 2 4 4 4 0 5 7 2 1 4 5 7 6 6 5 5 7 9 5 1 7 9 9 10 9 5 3 6 2 3 5 9 7 3 1 3 4 8 11 12 12 12 11 9 6 6 5 3 5 8
16 15 12 8 5 2 1 1 6 6 4 6 4 4 2 2 2 1 2 1 1 1 0 2 1 1 2 3 1 3 1 1 1 0 3 3 2 3 1 4 4 2 2 2 2 8 5 3 5 4 5 7 7 7 9 6 3 3 13 14 11 11 7 6 6 2 4 1 4 10 8 2 1 5 7 11 9 13 10 8 7 6 5 4 3 4 3 8
16 13 9 4 2 2 4 2 8 4 5 3 4 2 2 6 2 1 2 2 2 3 1 0 1 3 3 3 2 2 1 1 1 3 1 1 2 3 2 2 4 4 2 2 2 4 2 1 1 3 7 2 4 1 1 5 8 6 3 6 8 7 6 7 4 4 4 3 4 10 9 2 0 1 4 6 1 2 9 12 12 11 8 7 5 4 2 4
16 12 8 5 4 1 5 1 1 1 3 3 2 4 3 2 3 2 1 3 1 1 1 1 1 2 2 1 4 1 3 1 0 3 6 3 4 3 1 2 2 1 1 1 5 3 3 5 3 4 4 11 2 3 1 4 2 7 8 7 8 1 2 1 4 1 3 3 2 4 9 1 2 0 0 4 6 4 5 10 13 12 10 7 5 5 4 2
18 13 9 9 7 3 8 3 3 4 4 1 3 3 2 3 1 2 2 1 1 3 1 2 1 2 3 2 0 1 1 4 1 1 3 2 5 4 3 2 5 4 2 2 2 2 6 2 1 5 1 4 7 7 2 4 3 9 9 6 7 4 2 2 2 2 4 3 2 6 3 1 1 2 3 4 4 4 6 9 11 13 11 9 7 5 4 2
20 13 2 6 10 10 4 1 1 4 2 2 2 1 5 5 1 2 1 2 1 1 1 1 1 3 2 4 2 2 2 1 2 0 3 1 3 1 2 1 3 1 1 2 1 3 1 3 6 3 2 3 7 7 10 7 7 8 5 9 7 8 6 4 4 5 6 3 1 3 5 3 2 1 3 3 2 2 2 6 10 10 7 5 5 4 3 1
22 5 3 1 5 10 14 7 3 3 1 3 7 5 4 1 2 1 2 2 2 1 1 2 3 2 1 1 2 1 2 1 2 4 2 5 1 2 2 2 2 3 1 2 2 2 4 5 7 6 2 6 9 5 6 9 8 3 2 5 7 6 5 6 4 5 4 4 4 1 1 1 1 2 3 2 3 4 3 5 11 10 7 8 6 5 4 2
8 1 2 2 3 4 6 4 4 0 1 5 2 5 3 1 2 2 2 2 1 1 1 3 6 4 1 2 2 3 4 2 2 3 3 3 1 0 1 1 1 5 4 4 3 1 1 1 2 7 1 5 9 7 2 8 6 4 4 6 5 3 9 6 3 3 4 4 1 1 1 2 1 1 2 4 6 4 4 4 9 11 8 9 7 6 5 3
5 3 0 1 2 1 5 7 6 4 7 6 5 2 2 2 5 2 3 2 4 0 2 3 3 1 0 1 1 3 1 4 2 3 0 0 1 1 1 3 3 1 5 5 3 3 1 6 5 2 4 5 3 5 7 6 7 6 4 8 2 3 4 6 3 1 3 3 1 0 2 1 2 2 2 5 8 5 4 3 6 9 9 9 7 7 6 5
5 2 2 3 2 3 6 7 5 6 5 3 2 2 1 2 1 4 1 3 1 2 4 3 0 3 1 1 1 1 3 4 3 3 1 0 1 1 1 1 4 2 1 2 4 2 3 3 5 3 4 3 1 8 4 2 0 11 10 8 7 1 4 2 5 1 2 1 2 2 3 4 4 2 2 6 6 6 3 2 6 7 9 8 7 7 6 6
0 1 1 1 0 5 3 5 6 5 2 4 1 2 1 4 3 2 4 2 1 2 3 1 2 1 3 1 1 1 0 3 1 2 5 1 2 1 1 2 1 3 2 7 3 1 1 1 5 2 2 1 1 4 6 2 3 4 6 7 2 5 4 4 3 4 5 3 3 2 1 4 1 4 2 6 8 7 4 4 3 6 7 7 7 7 7 6
2 2 1 2 2 1 3 1 5 5 3 3 1 1 1 1 3 5 3 1 1 2 0 1 0 3 2 0 1 2 2 2 2 1 3 1 1 2 0 3 1 5 4 0 1 1 1 0 2 3 3 2 4 0 8 8 6 3 6 3 0 2 1 6 3 2 5 7 3 3 1 5 1 3 3 7 6 7 6 4 2 1 2 5 6 6 6 5
0 2 2 2 1 2 1 4 3 1 1 1 1 2 1 1 3 3 5 2 1 0 1 1 1 2 1 1 2 0 1 2 2 1 1 0 1 1 1 0 1 2 2 3 3 0 2 1 4 3 1 3 4 3 5 10 13 9 8 8 8 8 6 6 1 1 2 6 5 5 6 2 3 2 1 8 4 7 6 6 5 4 4 4 4 5 5 7
2 2 1 2 1 0 2 2 1 1 1 0 2 1 2 1 2 4 3 3 5 2 2 4 1 2 1 1 0 1 2 2 2 2 0 3 1 2 2 2 3 1 1 0 1 2 1 3 1 2 1 2 1 1 3 4 2 4 7 8 6 2 7 6 6 3 3 1 4 2 3 1 2 2 2 7 7 7 6 6 7 7 7 6 3 6 5 4
3 1 3 2 1 2 3 1 1 1 1 3 3 1 1 1 1 2 2 3 1 2 2 4 0 1 0 1 0 2 1 2 1 1 1 0 3 2 5 7 5 4 3 1 1 0 3 2 1 2 4 5 5 2 2 2 3 4 4 3 4 7 6 7 7 8 7 4 3 1 0 1 2 1 2 7 7 7 6 7 7 8 7 7 8 6 5 5
0 1 1 1 1 2 2 2 2 3 3 4 2 3 2 0 2 5 3 3 1 1 1 0 2 1 1 0 2 1 0 2 1 2 1 0 2 1 3 6 5 2 2 1 1 1 0 1 2 1 2 3 4 3 3 2 5 2 2 1 1 5 7 4 8 3 7 5 5 8 5 2 3 2 5 6 7 7 9 8 8 8 7 7 6 5 4 4
0 1 1 6 4 2 1 3 3 1 2 3 2 3 4 2 1 1 1 3 2 1 1 1 1 0 2 1 2 1 2 1 1 1 1 0 1 1 3 7 5 2 2 4 4 0 5 0 0 2 6 5 6 5 4 3 3 1 1 1 0 8 12 6 4 1 4 3 3 4 2 1 6 6 8 7 7 8 9 9 9 8 7 6 4 5 6 5
2 1 3 3 6 3 2 0 1 0 3 2 3 2 0 2 2 3 2 1 2 1 2 1 0 3 4 6 5 6 5 3 2 0 1 1 2 1 1 7 5 3 8 3 4 2 2 2 2 2 6 7 3 3 4 1 1 3 1 1 1 2 3 6 6 5 6 5 5 3 6 10 10 11 10 8 7 8 10 9 9 8 7 6 5 5 6 7
1 3 1 2 6 3 0 3 1 1 2 2 1 1 4 2 2 2 5 1 4 2 1 3 2 2 3 4 2 3 4 2 6 3 3 0 2 2 5 3 5 10 12 2 5 3 3 3 2 3 3 1 3 4 4 1 3 2 4 1 0 2 4 8 9 6 6 12 2 3 8 15 13 12 11 10 9 8 9 10 9 9 8 6 6 7 8 9
1 1 1 1 1 1 2 2 5 2 1 2 0 1 1 3 5 1 4 1 1 3 2 3 7 4 5 4 2 3 5 2 3 2 4 1 0 5 4 5 4 7 7 2 3 4 3 2 6 1 5 4 4 4 2 3 3 3 3 3 2 1 2 7 0 4 9 8 10 8 13 12 12 12 12 11 10 9 8 9 10 9 8 7 7 8 10 10
2 0 1 0 0 2 3 2 2 1 1 1 1 3 1 3 4 1 0 4 4 4 3 2 4 5 0 5 5 1 2 3 4 1 0 3 3 3 4 4 2 6 6 3 5 2 2 1 2 0 4 8 9 9 6 7 4 7 9 7 4 3 2 7 6 3 2 2 3 15 11 7 9 13 12 10 7 7 8 10 9 9 9 7 8 9 10 9
2 1 0 4 2 1 3 2 1 3 3 3 2 2 1 2 1 2 3 4 2 3 3 5 1 4 1 7 6 3 1 1 1 1 1 1 2 1 1 2 3 5 4 3 1 3 3 3 5 3 4 5 7 9 9 4 10 11 8 9 9 6 7 4 7 7 13 10 11 15 13 9 5 11 9 8 8 7 9 10 9 9 8 9 9 9 9 8
0 1 1 1 1 2 1 3 1 0 3 4 5 0 3 1 4 2 3 0 1 0 2 5 1 4 4 7 6 2 2 2 2 2 3 2 2 1 2 2 1 2 5 4 4 4 4 2 4 4 5 5 5 11 7 7 8 12 8 10 9 5 6 0 3 1 4 9 12 12 10 7 7 10 11 10 10 11 10 10 9 8 9 9 10 9 8 7
1 0 2 2 0 1 1 1 1 2 3 1 1 0 1 2 2 0 4 3 4 2 2 2 1 6 4 7 4 0 3 2 3 3 1 3 0 1 2 1 1 2 1 2 0 2 0 2 3 3 5 2 7 6 6 7 4 7 6 5 3 1 1 0 2 3 7 20 15 12 11 8 13 13 14 11 11 10 10 10 10 10 8 10 10 9 8 8
Wind_Direction
344 344 342 341 340 338 334 332 331 330 327 325 323 321 319 319 318 317 317 316 315 315 317 318 320 322 320 323 323 323 331 333 320 308 217 240 187 208 173 223 171 185 189 117 120 118 110 121 135 123 103 108 235 101 188 188 198 126 219 225 263 247 288 333 57 150 28 136 128 149 196 120 112 77 85 92 59 58 72 78 67 60 72 97 113 121 130 127
344 342 340 338 337 335 331 330 330 326 325 321 320 318 318 316 316 315 314 315 315 316 317 318 320 320 322 321 323 325 340 314 295 269 237 211 210 197 195 193 153 165 149 129 148 140 132 151 156 131 122 137 231 160 148 223 149 156 227 165 253 257 270 64 24 64 100 123 138 135 64 80 117 124 163 100 106 99 87 82 98 93 90 100 114 128 132 125
343 341 338 336 335 331 330 327 325 323 321 319 316 317 315 313 312 312 312 313 313 315 315 318 319 320 321 322 311 356 338 317 275 268 265 224 222 187 191 171 161 153 164 147 158 144 155 164 149 127 142 99 180 163 175 243 149 230 118 290 262 260 283 123 75 85 93 134 128 125 101 79 127 83 130 124 121 96 118 125 113 118 127 129 132 136 134 129
341 340 338 335 333 331 328 326 323 321 319 318 315 314 313 311 308 309 309 310 311 313 316 315 317 320 321 319 327 0 55 279 279 248 263 242 195 170 176 163 160 138 96 116 141 129 105 109 135 126 123 90 231 147 165 214 158 193 147 222 243 171 32 73 108 97 113 135 125 114 105 101 51 83 106 137 110 118 157 162 153 152 140 137 141 142 139 134
340 340 337 335 332 330 329 326 323 321 319 316 316 312 310 308 306 305 306 307 310 312 314 314 316 317 316 309 12 51 68 25 258 243 270 202 166 162 158 162 157 135 124 138 114 94 125 138 150 131 111 172 174 135 240 197 207 127 221 227 203 134 97 152 110 120 117 92 103 113 130 141 149 53 121 153 148 183 178 169 152 146 144 142 146 146 138 140
339 338 335 333 331 329 326 325 323 321 319 316 314 312 309 306 304 304 303 304 306 310 312 313 314 317 313 320 27 246 28 94 304 301 311 135 148 148 148 156 149 133 113 128 140 139 123 148 139 129 122 105 195 181 246 199 179 236 288 234 196 202 134 137 101 114 117 115 102 127 112 106 75 86 124 107 130 124 119 142 143 145 143 136 137 138 143 143
338 336 334 332 329 326 324 323 322 319 316 316 312 310 308 305 303 299 298 300 303 308 309 312 313 313 314 333 111 352 135 274 309 256 20 125 139 135 139 142 140 133 116 124 134 148 172 149 142 152 114 125 248 211 248 236 190 199 235 297 41 132 115 133 121 119 98 108 108 57 98 68 113 107 155 88 137 116 113 122 130 133 137 138 140 145 147 148
337 335 333 331 327 324 322 321 319 317 315 313 311 308 306 303 301 298 299 301 302 302 309 310 313 312 318 35 88 340 46 247 257 290 112 120 125 134 123 99 131 138 131 151 155 164 151 149 156 137 106 163 216 175 229 195 187 203 228 129 81 64 71 111 124 116 110 95 106 86 64 38 25 67 99 80 120 118 121 125 128 135 142 142 139 144 147 146
335 334 332 329 325 323 320 319 317 315 313 313 309 309 305 303 299 299 300 299 300 300 304 311 308 305 344 352 150 350 267 237 231 330 121 119 127 124 124 113 144 143 151 135 153 161 139 194 130 161 208 195 213 270 235 161 272 195 159 100 86 93 92 97 104 101 112 103 111 80 83 64 327 3 67 8 137 127 127 128 135 142 149 152 147 148 152 154
335 334 330 328 326 323 321 319 317 315 316 313 312 308 305 300 298 297 299 301 298 300 303 301 301 304 293 9 348 163 261 233 4 90 131 125 120 126 91 128 141 136 134 179 139 152 178 195 155 162 101 203 39 246 276 183 236 122 98 91 104 108 102 64 105 103 72 80 127 111 123 155 308 67 89 85 148 128 129 134 143 150 156 155 149 152 155 158
335 333 330 329 326 323 320 318 316 316 315 312 310 309 304 301 297 297 298 297 299 299 299 288 272 178 89 161 121 220 270 56 349 101 139 132 127 139 148 150 153 143 139 149 172 152 197 146 159 106 25 222 294 276 138 243 114 105 111 97 99 102 96 93 91 102 103 59 81 113 94 97 337 72 164 153 158 136 135 141 149 156 157 159 151 155 160 162
334 333 332 330 327 322 319 317 317 317 314 313 311 308 304 300 297 297 296 296 292 295 301 262 180 184 336 93 199 222 306 126 56 91 139 147 138 130 112 160 163 155 149 158 189 193 215 112 92 94 175 30 269 300 353 127 103 130 112 99 111 99 108 117 111 103 342 113 126 114 86 136 88 143 339 155 153 140 141 146 152 159 161 160 155 153 166 170
334 333 332 331 327 323 321 319 318 316 315 314 312 307 304 301 299 295 291 290 277 255 213 161 153 88 273 343 234 237 263 63 83 77 105 57 79 55 97 94 41 96 137 149 181 196 227 74 63 72 270 30 309 77 150 76 123 115 35 117 116 120 119 20 89 119 1 114 169 141 153 210 198 87 24 155 152 142 140 150 156 159 162 162 161 166 171 167
333 332 332 330 327 325 323 321 319 319 316 313 308 306 305 300 295 291 286 266 261 213 168 165 109 151 114 245 274 245 260 144 100 103 152 85 93 43 67 81 75 56 52 91 150 166 218 346 39 283 292 188 259 276 115 64 39 78 115 59 114 159 192 172 67 291 123 110 230 337 168 196 184 173 161 172 157 150 152 157 158 160 163 166 170 171 178 181
328 331 331 329 329 327 326 324 324 319 315 312 313 309 302 295 287 285 277 265 247 209 170 107 37 94 46 268 265 285 210 100 142 191 175 129 121 88 120 101 118 76 22 44 62 157 167 154 46 2 269 237 185 318 24 42 19 96 113 101 16 138 228 141 159 192 152 206 291 310 88 186 168 180 165 157 169 157 152 161 161 163 165 170 174 181 182 188
326 328 327 330 330 329 328 328 323 320 317 316 312 306 294 279 275 259 162 101 109 152 149 75 205 162 68 301 242 360 82 167 250 184 187 142 145 131 139 117 112 85 42 316 258 289 132 130 166 198 278 16 86 115 90 66 339 28 101 159 138 146 158 123 198 203 282 121 278 289 140 95 195 187 142 166 169 168 154 162 164 166 168 172 179 185 187 184
327 325 326 328 331 330 331 327 321 324 320 315 311 301 281 271 265 223 197 162 62 88 89 103 140 191 22 238 276 344 292 257 158 81 147 172 127 130 113 108 110 109 91 300 319 112 359 127 287 89 22 174 160 120 101 356 352 241 46 138 200 155 148 183 144 220 211 153 173 239 139 176 143 166 150 162 171 161 161 164 167 168 171 177 182 185 188 194
328 328 328 328 331 332 332 323 326 327 324 317 307 265 265 104 131 117 95 91 102 58 328 232 229 335 284 318 338 285 296 297 314 118 107 120 117 133 127 119 102 118 120 101 183 140 300 214 37 205 323 103 125 119 125 202 181 183 133 103 87 85 161 149 164 193 162 181 146 153 126 132 138 143 148 154 174 170 171 168 170 171 173 177 184 187 192 196
330 329 326 324 329 333 332 331 333 331 332 321 319 122 167 138 52 323 108 161 109 18 8 297 109 42 167 245 295 297 278 207 99 129 145 129 156 137 109 94 122 132 143 126 265 137 355 121 45 62 206 136 178 156 165 202 138 142 132 125 116 138 197 176 179 142 163 157 158 161 165 146 146 146 145 158 177 182 175 169 169 175 176 178 184 187 191 197
327 326 325 325 326 329 334 335 332 355 349 340 14 92 109 31 13 336 187 242 219 210 258 202 203 327 318 281 273 261 278 90 155 224 136 155 123 129 149 120 119 67 120 162 128 216 130 175 189 184 190 209 175 182 177 170 138 136 127 110 138 112 69 143 140 157 152 127 169 147 139 139 153 158 160 120 151 191 180 175 176 180 180 182 185 187 191 196
322 324 324 324 324 326 330 332 332 350 342 328 315 137 17 168 50 302 273 233 226 243 246 228 188 194 230 300 294 15 21 316 56 127 173 136 106 122 203 119 143 97 145 145 144 242 99 180 234 197 199 189 196 183 112 69 66 134 139 145 151 138 156 171 162 160 187 194 154 127 130 155 160 159 152 80 141 187 188 182 180 184 186 186 186 188 188 201
323 321 323 323 323 322 325 325 334 67 17 202 132 171 204 206 205 201 89 318 304 232 220 245 17 279 273 250 228 123 93 2 316 58 153 143 160 127 282 98 126 152 44 79 29 60 174 206 230 212 207 201 68 107 128 131 99 54 129 149 120 110 110 87 139 158 121 55 125 147 147 166 164 153 125 110 122 159 82 307 202 182 189 190 191 190 186 189
322 320 320 323 322 321 323 325 335 89 188 152 157 187 222 239 342 305 83 279 278 277 163 183 224 244 275 246 213 130 124 203 195 239 168 132 147 178 133 90 122 124 66 89 166 108 196 271 231 195 159 143 75 88 104 94 80 112 80 119 174 174 152 180 130 48 21 337 157 158 142 153 138 95 102 171 228 133 60 317 286 214 190 191 194 189 185 185
320 321 320 321 323 322 318 329 324 137 203 205 198 211 235 282 224 38 117 231 301 309 196 209 175 188 234 324 194 124 148 238 116 290 204 128 149 198 93 124 93 105 183 151 159 164 205 187 82 136 142 154 142 156 129 144 206 262 163 149 133 179 226 127 144 124 103 46 94 118 119 167 169 154 162 196 224 185 179 352 304 256 236 208 193 196 190 183
318 321 322 321 323 322 321 327 126 236 156 138 236 248 258 248 232 182 94 348 16 293 235 72 220 224 230 343 130 125 230 75 201 193 165 130 109 92 175 182 103 194 172 170 112 167 286 263 157 89 86 114 128 138 200 140 214 305 227 192 173 180 115 103 127 132 130 106 196 160 147 207 188 181 178 165 172 201 104 10 303 247 221 173 185 200 199 200
318 319 322 323 323 327 311 71 265 50 287 266 228 181 220 297 187 156 98 76 326 267 340 253 190 345 116 171 90 176 97 237 216 207 156 188 158 136 109 50 124 209 164 155 176 191 206 262 133 161 132 117 140 177 242 157 188 161 270 189 166 163 138 134 146 142 167 191 192 221 170 231 193 185 181 177 185 188 158 187 219 247 224 191 198 192 187 187
321 319 320 324 328 335 333 243 274 262 7 310 283 309 325 288 131 120 45 348 30 274 108 252 84 251 141 200 145 108 73 253 321 101 81 198 159 5 124 216 36 45 156 147 50 275 155 29 103 96 113 120 140 221 254 156 141 225 248 150 145 138 146 159 155 162 111 64 93 203 93 148 310 212 181 176 185 202 196 202 209 218 233 208 205 193 186 188
320 318 319 322 325 5 243 336 341 107 225 247 320 330 344 146 109 40 81 67 294 285 50 287 237 200 108 284 137 127 192 207 118 255 135 245 98 3 96 197 160 179 179 92 194 259 165 229 152 127 115 144 200 204 212 171 163 203 222 143 154 163 166 155 149 128 132 123 147 197 177 49 285 190 145 158 193 212 214 204 205 209 211 207 207 200 188 188
317 317 319 318 321 322 233 222 78 236 244 302 303 344 341 80 98 98 109 98 305 353 229 118 279 354 339 100 129 26 354 43 120 262 4 68 33 144 97 211 157 166 18 158 203 285 296 197 204 171 152 204 221 220 176 186 209 297 86 81 73 64 57 50 56 100 101 81 199 192 188 131 278 144 171 173 201 217 214 206 203 203 202 199 193 214 194 186
316 317 317 316 310 146 177 214 229 243 311 294 306 314 56 59 31 39 16 4 53 317 283 258 13 215 56 112 325 1 68 351 78 38 42 147 332 34 54 146 130 126 192 360 191 220 243 316 163 124 186 206 191 206 180 168 133 136 89 87 67 53 56 42 34 17 68 320 249 187 195 129 218 205 193 177 207 211 194 195 201 202 191 193 199 197 193 182
314 309 305 295 236 220 143 294 249 226 253 294 293 345 73 41 107 105 74 256 44 280 9 297 243 23 111 136 138 331 76 14 30 114 67 60 23 57 25 65 47 50 50 7 277 299 310 295 158 237 180 163 145 150 313 157 155 113 97 112 95 31 22 54 360 11 82 266 262 176 184 117 149 275 216 230 356 162 189 192 188 191 183 191 187 186 202 187
312 304 279 214 234 312 169 226 213 300 296 284 25 53 68 260 15 77 188 337 83 270 178 247 354 101 64 24 100 190 167 35 298 120 146 152 121 164 273 150 194 76 321 233 253 5 296 229 224 260 207 159 148 107 357 176 193 93 113 103 98 48 49 6 32 263 201 210 329 149 139 84 259 218 113 244 266 263 214 196 186 182 185 179 178 167 180 191
313 306 269 226 213 232 248 264 342 319 305 349 70 51 62 96 51 271 322 324 265 173 292 190 189 115 158 71 18 238 248 162 255 93 112 34 126 208 240 166 196 161 187 244 219 17 275 275 235 240 346 187 136 147 170 128 179 131 135 128 97 106 68 102 210 287 328 285 347 145 168 248 272 274 212 251 239 248 216 205 177 182 179 177 165 166 158 158
312 313 222 199 201 221 251 306 337 353 15 43 73 36 46 58 329 243 266 225 239 323 19 116 43 48 53 155 245 153 149 300 128 157 83 116 61 149 290 290 137 99 93 160 211 199 186 254 267 145 239 187 167 159 172 160 157 168 156 150 165 152 156 165 181 184 203 195 353 97 146 240 115 179 315 306 48 350 296 184 162 172 168 136 136 138 116 121
311 322 145 110 224 246 240 241 293 349 61 67 52 84 100 247 238 253 282 296 285 285 55 346 90 80 8 24 306 330 156 18 19 97 28 112 226 143 194 259 259 113 136 130 266 75 200 207 256 212 219 151 170 186 143 134 143 199 168 64 118 208 149 154 188 151 155 125 109 115 231 294 209 306 291 77 90 58 33 119 120 151 143 140 145 146 147 154
331 99 152 226 216 259 183 180 202 27 84 56 76 41 63 181 350 171 246 189 313 62 311 23 68 67 315 335 323 50 358 124 336 81 4 61 118 96 260 245 221 184 133 175 203 194 20 297 267 317 132 165 197 143 191 141 157 221 128 169 208 170 118 103 55 20 108 60 57 38 277 234 317 327 312 129 91 76 114 125 144 162 159 149 156 152 156 162
21 317 345 292 277 138 136 152 147 122 63 88 90 50 204 281 205 172 265 301 276 37 70 95 331 96 170 319 289 333 338 56 11 94 18 55 2 310 320 282 223 154 206 157 285 184 139 261 289 126 282 256 189 158 164 182 138 97 161 216 104 75 93 120 144 333 52 127 206 330 271 275 82 282 222 107 83 67 55 137 151 161 165 160 158 159 156 157
342 344 255 297 263 118 151 159 123 53 80 80 55 291 206 3 193 189 264 346 18 36 87 106 324 112 245 102 334 310 324 93 291 59 128 359 134 229 99 285 280 161 314 226 164 277 142 312 294 237 206 264 10 108 62 18 243 156 189 169 133 198 233 333 101 80 103 313 213 292 343 283 176 241 232 143 114 99 74 74 150 146 174 174 156 159 156 137
243 40 36 303 5 156 164 154 70 76 60 54 325 37 263 234 257 234 263 155 133 110 71 297 141 322 131 118 228 324 290 118 195 118 96 307 77 126 62 171 297 237 306 149 138 242 30 163 293 298 151 331 16 113 193 212 16 12 89 129 73 110 144 129 203 164 114 148 122 275 43 255 208 185 214 145 130 119 109 99 155 179 174 177 166 166 166 154
29 36 330 346 114 128 172 46 64 43 68 54 228 225 233 278 283 297 2 151 335 77 248 100 159 105 58 201 143 123 360 88 96 181 98 268 138 288 274 348 254 308 72 174 165 171 172 116 229 282 297 73 181 89 180 160 143 110 129 172 38 25 216 102 34 87 155 156 157 137 318 259 261 232 238 141 132 127 138 148 135 154 187 180 176 166 170 163
341 98 274 301 115 132 2 42 50 53 66 269 188 242 322 268 331 301 327 34 123 299 146 135 126 90 183 74 10 38 52 54 53 68 137 89 125 36 260 298 188 294 0 30 47 43 88 102 197 306 40 176 237 242 191 170 161 161 153 188 160 135 113 130 203 358 75 114 169 140 228 287 274 300 228 124 126 126 138 133 90 103 151 162 162 159 161 172
78 29 280 316 121 65 69 38 9 215 93 278 349 190 329 37 19 313 342 343 72 40 48 105 80 118 89 80 191 6 103 45 28 80 280 139 239 122 266 26 267 185 86 124 203 241 154 157 94 285 194 206 239 308 282 176 66 166 146 178 163 130 113 113 140 230 64 37 90 131 104 298 279 308 123 127 128 124 119 108 98 78 67 52 85 149 143 136
66 194 254 282 302 37 62 42 287 35 285 239 289 297 259 343 146 270 36 346 19 49 34 46 19 76 259 167 223 72 109 84 56 153 239 103 161 211 261 328 291 97 111 336 30 290 106 60 80 271 312 302 307 261 79 75 130 89 30 62 127 161 175 161 169 168 132 151 82 1 97 228 258 238 71 114 113 106 90 100 96 83 74 63 54 69 91 122
147 235 324 290 38 112 72 225 325 303 280 308 28 294 302 191 34 13 16 340 53 8 86 56 357 107 98 89 90 86 178 87 322 92 22 229 68 271 339 7 359 53 70 265 130 237 101 334 118 69 22 342 343 351 7 328 60 86 134 317 119 97 73 109 99 50 99 203 172 135 207 179 167 112 107 107 108 98 96 86 89 87 81 75 66 64 97 142
203 293 238 297 357 99 193 187 153 211 291 337 1 350 342 7 55 134 103 351 349 106 86 9 233 99 34 79 68 72 22 116 131 345 129 215 156 309 356 30 342 70 315 248 239 358 84 60 65 134 147 153 171 175 210 218 184 265 103 78 304 126 132 115 101 104 104 216 129 134 179 148 124 140 132 123 116 103 102 99 90 87 90 97 79 47 43 33
30 161 308 341 4 30 102 116 123 173 321 343 13 305 60 19 348 350 80 36 63 40 103 181 294 87 54 41 34 20 6 13 89 258 57 340 319 333 53 343 44 10 343 35 14 90 113 90 89 150 152 179 200 217 253 132 48 97 38 103 146 75 73 85 109 109 164 183 178 229 159 141 151 159 146 145 133 127 124 114 104 101 97 77 64 49 45 48
161 80 1 335 338 27 238 358 31 60 246 160 63 306 12 349 261 346 29 93 6 9 35 62 340 53 17 68 30 34 10 358 1 82 350 263 273 262 299 348 322 8 343 332 357 93 68 51 21 139 99 196 230 229 270 218 134 130 119 116 38 112 134 122 140 203 155 107 277 271 172 148 170 158 152 147 139 128 131 119 116 116 119 106 91 75 58 50
64 268 105 185 124 273 22 313 35 357 268 102 280 24 11 41 29 59 327 68 271 14 99 346 35 12 102 111 122 57 336 12 21 16 312 248 335 343 24 346 39 337 359 21 350 95 119 64 324 344 54 41 13 317 312 100 63 95 87 90 152 298 129 125 159 163 148 150 188 189 173 160 160 155 149 149 155 150 139 127 117 116 117 111 98 81 70 63
113 183 158 286 206 248 177 261 318 115 44 128 85 61 54 73 73 24 125 321 21 353 46 111 336 334 27 112 88 96 34 63 338 328 59 329 36 355 15 342 313 10 26 13 29 86 83 32 309 237 57 33 15 12 352 99 93 57 43 44 38 77 61 106 96 77 106 151 152 145 154 132 148 145 154 156 140 134 122 115 119 116 108 96 92 85 85 76
353 54 307 1 76 297 293 356 26 67 77 359 87 307 121 33 85 321 6 53 16 334 12 77 353 17 345 82 83 79 58 149 149 16 297 119 348 77 118 187 277 324 38 32 22 1 99 322 334 323 63 13 11 7 11 12 99 75 42 45 44 52 68 56 107 101 84 64 110 131 133 131 131 145 135 129 133 122 117 119 112 109 106 105 97 94 91 90
212 147 143 72 12 302 343 11 51 96 73 349 82 271 75 2 83 85 86 287 124 64 16 137 168 59 18 81 90 87 225 193 188 233 258 158 93 229 112 312 141 323 354 13 20 337 51 265 18 33 62 343 354 5 329 329 82 80 45 22 19 25 74 5 101 226 119 138 130 122 132 151 154 127 125 135 136 133 126 123 120 113 104 99 99 94 93 88
49 271 77 110 116 2 33 320 17 62 28 227 149 267 143 244 231 64 66 17 47 66 172 159 241 93 19 58 57 347 288 220 240 290 248 200 131 75 81 120 139 83 21 42 195 62 52 114 54 29 72 312 305 9 330 329 52 34 352 336 332 320 190 129 22 24 153 139 136 165 196 149 138 137 133 142 137 129 128 129 121 114 108 107 104 103 97 93